Location: Peebles
(55.6412°N, 3.1714°W)
Time: 03:35:04
(UTC+01:00)

Cosmos 971 Rocket - Visible Passes

Search period start: 01 July 2022 00:00
Search period end: 11 July 2022 00:00
Orbit: 967 x 994 km, 82.9° (Epoch: 30 June)

Date Brightness Start Highest point End Pass type
(mag) Time Alt. Az. Time Alt. Az. Time Alt. Az.
01 Jul 8.1 03:35:12 10° NNE 03:35:59 10° NE 03:36:46 10° NE visible
05 Jul 7.6 03:35:44 10° NNE 03:39:04 14° NE 03:42:24 10° ENE visible
08 Jul 7.6 03:11:10 10° NNE 03:14:17 14° NE 03:17:22 10° ENE visible
09 Jul 7.2 03:37:26 10° N 03:42:01 20° NE 03:46:34 10° E visible
